Date,TemperatureHighF,TemperatureAvgF,TemperatureLowF,DewpointHighF,DewpointAvgF,DewpointLowF,HumidityHigh,HumidityAvg,HumidityLow,PressureMaxIn,PressureMinIn,WindSpeedMaxMPH,WindSpeedAvgMPH,GustSpeedMaxMPH,PrecipitationSumIn
2014-1-1,13.7,11.0,8.6,11.1,6.0,1.4,89,80,67,30.50,30.35,6,1,7,0.00
2014-1-2,13.7,9.5,0.2,11.1,5.8,-4.8,89,85,77,30.37,30.19,15,3,17,0.00
2014-1-3,15.8,3.9,-7.0,4.1,-2.8,-10.3,87,74,56,30.55,30.24,11,1,15,0.00
2014-1-4,30.5,21.0,9.7,24.3,13.6,2.0,94,73,58,30.24,29.98,16,2,17,0.00
2014-1-5,29.2,26.1,17.5,27.6,24.7,15.8,95,94,92,30.13,29.61,1,0,1,0.00
2014-1-6,17.5,2.9,-15.8,15.8,-0.9,-20.6,93,84,70,30.18,29.61,15,2,21,0.00
2014-1-7,2.8,-7.0,-15.9,-5.1,-12.5,-20.6,81,76,67,30.45,30.17,14,4,16,0.00
2014-1-8,18.1,5.9,-6.5,9.3,0.7,-9.8,89,80,64,30.62,30.44,8,1,8,0.00
2014-1-9,20.2,6.9,-11.6,18.0,3.5,-15.1,92,86,71,30.72,30.42,7,0,7,0.00
2014-1-10,36.8,30.5,19.9,36.3,29.4,18.0,98,96,92,30.42,29.76,7,0,9,0.47
2014-1-11,41.2,37.1,31.7,40.9,35.8,28.0,99,95,86,29.77,29.36,15,3,18,0.24
2014-1-12,38.9,33.2,30.6,31.3,28.4,26.1,90,83,69,29.97,29.68,13,3,17,0.00
2014-1-13,42.3,38.5,34.9,36.3,33.4,30.9,92,82,75,29.81,29.60,11,2,11,0.00
2014-1-14,39.3,31.8,22.1,32.2,26.4,20.1,95,81,58,29.86,29.69,16,2,16,0.00
2014-1-15,29.8,23.5,17.4,22.1,16.9,11.4,85,76,66,30.07,29.76,18,4,18,0.00
2014-1-16,25.7,21.3,17.1,24.2,17.7,11.1,94,86,77,30.02,29.71,14,2,14,0.00
2014-1-17,30.4,25.3,17.2,25.5,21.2,12.6,94,84,72,29.97,29.69,11,2,11,0.00
2014-1-18,18.5,14.8,9.0,13.4,10.7,6.0,88,84,78,30.02,29.90,6,1,7,0.00
2014-1-19,28.5,20.9,11.0,23.0,16.9,8.9,92,84,70,29.90,29.60,21,4,22,0.00
2014-1-20,28.2,19.4,7.9,26.7,14.3,1.3,94,81,66,30.15,29.58,11,1,15,0.00
2014-1-21,9.0,2.5,-6.5,1.3,-4.3,-10.8,84,73,62,30.31,30.15,12,2,12,0.00
2014-1-22,9.0,0.7,-12.3,5.1,-3.4,-15.8,88,83,68,30.30,30.07,8,1,10,0.00
2014-1-23,13.6,5.0,-3.8,7.6,0.8,-7.7,89,83,71,30.57,30.07,12,1,13,0.00
2014-1-24,15.1,5.1,-3.8,11.4,-0.5,-7.4,88,77,64,30.56,29.61,21,4,22,0.00
2014-1-25,24.4,14.8,1.9,22.1,9.8,-5.0,93,80,60,29.85,29.37,16,3,18,0.00
2014-1-26,21.6,9.5,-3.3,19.5,5.9,-7.8,92,85,73,29.86,29.49,10,1,12,0.00
2014-1-27,16.8,4.9,-5.9,14.6,-2.5,-11.4,91,71,53,30.39,29.53,15,3,18,0.00
2014-1-28,8.5,-2.0,-9.9,-0.5,-8.3,-13.6,85,75,59,30.46,30.27,14,3,15,0.00
2014-1-29,16.3,5.8,-5.7,6.5,-1.1,-11.1,84,73,62,30.30,30.18,16,4,18,0.00
2014-1-30,24.8,16.5,7.0,22.5,9.0,0.5,91,72,58,30.26,29.86,16,2,17,0.00
2014-1-31,31.1,26.8,21.6,25.8,21.9,16.2,92,82,64,30.21,29.92,8,1,9,0.00
2014-2-1,30.7,26.1,22.5,29.4,24.3,18.9,95,93,81,30.21,29.88,5,1,7,0.00
2014-2-2,23.1,20.0,12.7,21.0,16.5,9.7,93,86,73,30.36,30.02,8,0,9,0.00
2014-2-3,25.5,11.0,-2.9,13.0,5.1,-5.8,91,78,50,30.49,30.33,6,0,7,0.00
2014-2-4,25.4,12.5,-1.1,16.2,7.2,-4.3,90,80,62,30.56,30.26,8,0,8,0.00
2014-2-5,22.8,16.4,1.8,21.0,13.3,-1.2,93,88,73,30.44,30.02,15,2,17,0.00
2014-2-6,18.5,8.7,-2.3,13.5,4.2,-5.3,89,82,71,30.45,30.32,10,2,12,0.00
2014-2-7,13.3,6.2,0.6,4.1,-0.2,-4.0,85,75,64,30.41,30.34,12,2,16,0.00
2014-2-8,19.0,9.8,0.3,11.3,4.6,-4.7,88,79,68,30.43,30.26,6,1,6,0.00
2014-2-9,22.3,14.5,8.7,13.1,10.0,4.6,91,83,67,30.26,30.09,9,0,11,0.00
2014-2-10,18.5,13.5,8.0,11.9,8.4,4.4,91,80,61,30.47,30.24,7,1,8,0.00
2014-2-11,16.6,8.1,-1.7,4.5,1.2,-5.0,86,73,55,30.60,30.46,5,0,5,0.00
2014-2-12,24.8,10.5,-4.5,11.4,3.4,-7.6,89,74,52,30.57,30.20,7,0,10,0.00
2014-2-13,32.2,21.5,12.5,15.5,12.0,8.5,85,68,42,30.20,29.60,8,1,8,0.00
2014-2-14,27.2,22.8,19.6,23.3,17.9,13.6,91,81,71,29.86,29.51,11,2,12,0.00
2014-2-15,20.7,11.4,2.4,16.9,4.8,-1.3,86,75,57,30.16,29.85,9,1,10,0.00
2014-2-16,24.8,14.1,0.7,18.4,9.9,-2.3,90,83,70,30.48,30.06,8,0,9,0.00
2014-2-17,20.2,8.4,-6.1,18.5,3.4,-9.4,93,80,57,30.51,29.73,14,2,16,0.00
2014-2-18,36.7,26.2,16.6,29.4,21.3,13.8,93,82,63,30.07,29.73,12,2,13,0.01
2014-2-19,44.8,35.6,25.3,32.9,28.4,22.8,92,76,52,30.10,29.66,12,2,15,0.07
2014-2-20,39.1,31.6,25.7,38.7,30.0,23.1,99,94,85,30.12,29.45,12,2,14,0.17
2014-2-21,43.4,34.3,29.6,43.1,26.4,13.9,99,73,51,29.79,29.44,23,7,30,0.01
2014-2-22,35.7,31.4,26.7,27.8,15.1,7.4,84,52,35,30.03,29.78,20,6,20,0.00
2014-2-23,29.0,23.0,18.6,16.4,13.0,9.0,79,66,50,30.12,30.02,14,3,17,0.00
2014-2-24,21.6,18.2,12.9,13.4,10.1,5.9,85,71,61,30.25,30.10,14,4,16,0.00
2014-2-25,21.8,15.1,9.6,12.9,7.3,2.3,84,71,61,30.25,30.08,15,3,15,0.00
2014-2-26,14.7,8.2,0.4,2.7,-0.5,-3.7,86,68,53,30.19,29.72,14,3,17,0.00
2014-2-27,11.5,5.1,-7.9,7.7,-4.9,-14.4,87,64,38,30.33,29.60,17,3,22,0.00
2014-2-28,18.2,4.7,-14.5,8.6,-4.1,-18.6,85,68,47,30.46,30.22,11,1,15,0.00
2014-3-1,25.1,18.7,12.7,21.5,14.6,8.0,90,84,77,30.37,30.17,11,1,11,0.00
2014-3-2,17.1,8.9,-1.3,11.2,2.0,-6.0,90,74,54,30.46,30.35,7,1,9,0.00
2014-3-3,17.4,4.2,-7.6,-0.4,-5.7,-13.1,81,64,41,30.58,30.45,6,1,9,0.00
2014-3-4,19.0,12.2,-0.9,4.8,-0.2,-6.4,79,58,43,30.53,30.30,6,0,7,0.00
2014-3-5,21.7,15.3,7.4,12.7,7.4,1.6,89,71,56,30.64,30.36,9,1,10,0.00
2014-3-6,28.0,15.3,4.6,11.9,6.4,1.8,89,69,48,30.63,30.27,12,2,15,0.00
2014-3-7,48.2,29.1,7.3,27.9,18.9,4.2,91,68,42,30.27,29.97,7,1,8,0.14
2014-3-8,38.5,28.6,15.6,30.2,21.9,12.9,91,76,63,30.25,29.97,11,1,11,0.00
2014-3-9,35.7,24.4,10.7,26.8,17.3,7.6,92,75,53,30.31,29.90,14,2,17,0.00
2014-3-10,55.3,-17.4,-90.0,36.5,31.5,-92.7,82,67,49,29.91,29.59,10,3,16,0.00
2014-3-11,52.3,42.5,34.5,36.4,35.1,31.4,93,76,45,29.82,29.69,11,1,11,0.07
2014-3-12,34.4,20.4,3.7,32.3,17.5,-0.4,96,88,75,30.10,29.65,16,3,22,0.00
2014-3-13,24.8,12.3,-1.7,11.8,2.8,-5.1,86,67,36,30.26,30.09,9,1,11,0.00
2014-3-14,50.3,36.3,19.4,35.3,26.7,11.8,88,69,53,30.09,29.61,23,3,26,0.13
2014-3-15,38.7,32.9,21.0,31.6,23.4,9.2,83,68,48,30.34,29.75,13,3,13,0.00
2014-3-16,20.9,14.3,7.1,9.5,4.8,0.0,77,66,50,30.51,30.34,10,2,14,0.00
2014-3-17,30.4,16.8,2.7,14.8,5.2,-0.9,87,63,35,30.32,30.04,11,2,12,0.00
2014-3-18,44.0,31.8,20.6,31.1,23.8,14.5,86,73,57,30.11,29.95,9,2,10,0.00
2014-3-19,43.6,38.5,32.9,42.8,35.9,28.1,97,90,78,29.97,29.64,16,2,19,0.26
2014-3-20,35.0,32.7,25.7,32.1,26.0,19.1,92,77,62,30.11,29.84,20,4,20,0.00
2014-3-21,43.4,30.8,17.0,28.8,22.7,15.1,94,74,47,30.17,29.78,10,1,11,0.01
2014-3-22,37.8,33.0,22.2,36.0,27.7,14.9,97,81,65,30.31,29.73,13,2,17,0.09
2014-3-23,23.6,18.2,10.9,14.8,7.6,3.4,73,63,51,30.43,30.31,13,2,13,0.00
2014-3-24,27.7,20.6,10.2,15.4,9.7,3.9,82,63,47,30.43,30.18,12,2,16,0.00
2014-3-25,28.3,22.1,15.5,21.9,14.2,5.3,88,71,53,30.25,29.99,18,2,18,0.00
2014-3-26,30.7,19.3,6.3,17.1,7.8,2.5,86,62,41,30.43,30.25,4,1,10,0.00
2014-3-27,38.9,32.5,24.4,34.8,26.3,16.5,90,78,65,30.28,29.74,4,2,15,0.11
2014-3-28,48.5,41.8,35.7,45.0,37.4,30.7,92,84,76,30.25,29.61,8,3,15,0.02
2014-3-29,36.0,32.8,29.8,31.1,28.2,25.8,88,83,77,30.26,30.15,5,2,16,0.00
2014-3-30,47.0,34.4,24.4,27.2,23.1,20.4,91,66,39,30.28,30.17,3,2,11,0.00
2014-3-31,59.0,41.6,24.2,32.1,26.3,21.0,92,59,31,30.28,30.06,3,1,12,0.00
2014-4-1,58.6,43.5,35.2,43.7,32.1,22.7,76,65,50,30.07,29.74,10,3,21,0.00
2014-4-2,51.8,39.0,29.3,31.7,26.2,23.4,79,62,38,30.27,30.06,4,2,9,0.00
2014-4-3,38.1,34.6,31.6,32.4,26.3,20.9,87,72,58,30.26,29.92,8,4,14,0.10
2014-4-4,46.3,37.3,33.1,45.8,35.5,30.9,98,93,83,29.91,29.48,10,3,19,0.22
2014-4-5,46.0,35.2,27.6,31.4,24.8,20.9,92,67,41,30.25,29.75,7,4,18,0.00
2014-4-6,55.9,38.6,21.5,29.6,23.2,16.2,93,60,26,30.27,30.09,3,1,10,0.00
2014-4-7,51.2,40.1,28.4,38.4,30.4,23.1,95,70,44,30.10,29.54,5,1,12,0.29
2014-4-8,58.4,45.6,34.6,37.6,34.3,27.7,96,68,34,29.86,29.52,4,2,12,0.11
2014-4-9,54.5,44.5,33.0,37.4,28.3,20.0,85,56,27,30.03,29.86,5,2,12,0.00
2014-4-10,68.1,54.5,41.9,45.7,39.6,31.7,73,58,42,29.96,29.68,11,3,25,0.00
2014-4-11,64.9,50.4,32.3,36.8,30.3,23.8,92,52,22,30.09,29.92,6,1,14,0.00
2014-4-12,70.3,54.4,38.4,48.8,38.7,31.0,93,60,28,30.15,29.80,7,2,16,0.10
2014-4-13,74.8,60.6,47.5,60.5,52.8,45.2,95,77,57,29.95,29.63,8,2,15,0.00
2014-4-14,69.4,56.0,28.6,56.6,45.7,26.8,94,70,54,29.81,29.40,10,5,25,0.04
2014-4-15,31.0,26.2,21.3,27.0,19.6,12.0,95,77,52,30.33,29.81,6,3,19,0.01
2014-4-16,42.6,29.9,16.3,24.9,17.9,11.6,93,64,37,30.55,30.32,4,1,12,0.01
2014-4-17,63.0,46.1,30.3,38.5,30.9,19.8,83,58,37,30.47,30.27,4,2,13,0.00
2014-4-18,59.3,49.8,35.4,47.4,41.6,30.1,94,74,50,30.41,30.26,4,1,11,0.07
2014-4-19,55.4,42.7,30.4,34.2,30.4,26.8,89,65,36,30.52,30.38,5,2,10,0.00
2014-4-20,71.5,53.5,35.2,38.6,32.8,29.0,83,51,21,30.42,30.13,5,1,10,0.00
2014-4-21,77.5,62.0,44.1,54.2,42.5,34.6,91,53,30,30.14,29.76,6,2,15,0.04
2014-4-22,56.7,47.5,38.1,55.5,41.4,30.9,97,80,63,29.98,29.67,7,4,22,0.10
2014-4-23,52.6,41.9,34.8,32.6,27.6,17.8,82,60,27,30.19,29.98,5,2,14,0.00
2014-4-24,55.2,44.5,32.4,28.2,21.4,16.0,68,41,26,30.25,29.92,5,2,11,0.00
2014-4-25,49.4,44.0,39.5,43.7,34.9,23.8,95,73,42,29.93,29.71,5,2,10,0.22
2014-4-26,51.0,43.7,36.1,40.9,36.2,31.4,97,76,54,30.18,29.81,6,2,16,0.01
2014-4-27,53.7,42.1,30.3,37.0,31.7,27.2,90,68,48,30.27,30.16,7,3,13,0.00
2014-4-28,53.3,48.1,41.7,38.8,34.2,30.7,71,59,45,30.18,29.86,11,6,23,0.00
2014-4-29,74.7,56.0,45.5,62.1,50.6,35.7,98,83,43,29.87,29.61,7,2,18,1.07
2014-4-30,65.9,55.4,51.5,55.8,52.0,50.1,97,89,64,29.87,29.75,4,2,13,0.24
2014-5-1,52.3,47.3,42.7,51.5,40.9,37.1,97,79,58,29.81,29.76,9,4,18,0.05
2014-5-2,52.7,46.9,42.9,45.5,43.7,41.3,95,89,72,29.84,29.76,8,4,14,0.13
2014-5-3,57.1,48.8,44.5,47.4,42.7,35.7,97,81,51,29.87,29.67,15,3,27,0.20
2014-5-4,54.3,47.5,38.5,42.2,35.6,29.6,90,65,42,30.14,29.86,9,2,24,0.00
2014-5-5,57.4,45.8,35.6,40.7,36.5,32.2,93,71,48,30.16,30.02,3,1,6,0.00
2014-5-6,59.4,47.6,34.8,41.0,36.3,32.6,96,68,44,30.16,30.07,6,2,12,0.00
2014-5-7,56.3,48.7,41.2,49.8,42.3,31.6,96,79,61,30.20,30.00,6,2,14,0.60
2014-5-8,85.6,66.4,48.6,67.3,57.1,47.2,95,74,52,30.07,29.89,4,2,13,0.00
2014-5-9,78.6,69.2,63.8,62.3,59.5,53.9,87,72,56,29.91,29.67,8,2,26,0.09
2014-5-10,69.0,59.9,50.7,57.5,44.1,36.8,80,58,32,30.00,29.78,9,4,21,0.00
2014-5-11,80.0,62.5,42.8,56.0,47.1,40.1,94,61,32,30.12,29.98,3,1,12,0.00
2014-5-12,68.9,63.8,57.3,64.6,60.7,53.7,99,90,66,30.06,29.94,2,0,5,1.03
2014-5-13,85.2,68.6,61.1,71.2,65.2,58.0,100,90,59,30.05,29.86,11,2,29,0.38
2014-5-14,61.3,54.4,46.6,57.9,51.5,43.8,96,90,83,30.15,30.00,3,1,11,0.24
2014-5-15,54.5,48.0,42.0,53.8,46.1,36.9,99,93,82,30.03,29.73,7,2,17,0.65
2014-5-16,52.4,43.0,33.6,39.2,35.9,31.7,94,77,57,30.09,30.02,4,1,13,0.00
2014-5-17,53.7,45.8,39.7,39.6,36.3,30.6,88,71,44,30.24,30.07,5,1,15,0.00
2014-5-18,65.7,53.1,37.8,39.4,36.7,34.4,91,58,33,30.31,30.22,6,2,13,0.00
2014-5-19,73.0,59.6,45.5,42.9,39.2,36.1,74,49,28,30.33,30.16,4,1,12,0.00
2014-5-20,74.5,60.6,51.0,57.3,50.2,41.1,92,70,51,30.25,29.89,4,1,14,0.11
2014-5-21,82.0,68.7,55.5,66.1,59.6,53.2,98,75,43,29.91,29.79,5,1,11,0.08
2014-5-22,69.1,61.4,53.0,56.8,51.0,43.8,89,69,53,30.07,29.84,4,2,14,0.00
2014-5-23,66.9,56.4,47.0,52.9,46.9,41.8,90,71,55,30.19,30.07,4,2,12,0.00
2014-5-24,77.2,62.1,47.6,54.1,48.4,45.4,98,66,35,30.25,30.14,3,0,7,0.00
2014-5-25,82.8,67.1,49.4,56.0,51.4,48.0,98,62,35,30.20,30.06,4,1,8,0.00
2014-5-26,83.8,71.5,54.0,62.1,55.8,51.1,95,61,37,30.09,29.91,5,2,12,0.00
2014-5-27,81.4,70.8,65.9,71.2,66.4,61.7,99,86,63,29.95,29.83,5,1,14,0.16
2014-5-28,67.6,61.4,55.5,67.3,59.8,51.7,100,95,74,30.13,29.90,2,0,6,0.83
2014-5-29,75.2,61.2,48.4,58.8,52.6,47.6,98,76,47,30.20,30.11,2,0,6,0.00
2014-5-30,82.7,66.3,49.7,58.3,53.6,48.6,98,68,39,30.25,30.14,2,0,6,0.00
2014-5-31,81.1,68.0,55.6,58.4,52.8,45.7,84,60,38,30.27,30.17,2,0,8,0.00
2014-6-1,85.9,69.5,50.8,60.7,53.0,43.8,90,58,34,30.23,30.00,3,1,11,0.00
2014-6-2,83.9,71.8,62.9,71.3,65.2,55.9,98,80,60,30.02,29.83,4,2,16,0.18
2014-6-3,77.1,70.0,56.8,68.0,59.8,50.8,98,73,47,29.92,29.79,10,4,25,0.02
2014-6-4,66.3,60.1,53.4,61.3,56.2,51.1,97,87,71,29.94,29.84,1,0,4,0.13
2014-6-5,74.6,61.9,49.7,53.5,47.1,43.9,93,61,35,30.00,29.88,4,1,15,0.00
2014-6-6,79.4,63.7,46.0,54.9,49.0,43.5,96,63,34,30.06,29.98,3,1,7,0.00
2014-6-7,83.7,68.5,51.9,57.7,51.2,45.6,98,60,28,30.09,29.90,2,0,6,0.00
2014-6-8,78.3,66.9,60.1,61.0,54.8,49.8,94,67,39,30.00,29.83,3,1,12,0.08
2014-6-9,82.4,67.9,54.9,60.4,55.1,50.6,97,68,35,30.04,29.93,2,0,6,0.00
2014-6-10,76.8,66.2,53.9,63.5,55.2,49.1,88,69,55,29.99,29.90,1,0,6,0.00
2014-6-11,75.3,67.0,59.1,69.1,63.5,50.1,98,89,61,29.90,29.71,2,0,7,0.47
2014-6-12,77.4,69.5,64.3,68.0,65.5,63.3,99,88,66,29.78,29.70,3,1,8,0.05
2014-6-13,67.1,60.0,48.5,64.7,52.4,44.7,96,76,60,30.05,29.73,5,2,14,0.01
2014-6-14,74.5,58.3,43.8,54.5,47.9,42.7,97,71,42,30.18,30.05,3,0,11,0.00
2014-6-15,81.1,66.4,49.9,57.3,53.1,47.0,97,66,36,30.19,29.96,4,1,13,0.00
2014-6-16,87.0,75.1,62.8,68.1,62.1,56.9,93,67,42,30.05,29.98,4,1,10,0.00
2014-6-17,87.7,75.9,63.2,72.6,66.4,61.2,97,75,46,30.01,29.80,10,2,24,0.00
2014-6-18,80.7,68.9,63.7,71.4,65.7,62.8,98,90,70,30.09,29.90,5,0,23,0.70
2014-6-19,77.3,68.0,60.7,67.1,63.1,52.0,99,86,65,30.16,30.01,2,0,6,0.01
2014-6-20,68.2,60.1,53.4,59.9,54.6,48.9,97,83,61,30.16,30.00,1,0,4,0.30
2014-6-21,80.8,67.0,55.8,61.7,56.3,50.5,99,73,41,30.03,29.92,1,0,4,0.00
2014-6-22,84.0,72.0,63.0,62.3,57.7,53.5,84,62,43,29.98,29.90,2,0,10,0.00
2014-6-23,78.2,69.1,57.3,71.4,63.3,51.7,96,82,66,29.96,29.86,1,0,5,0.14
2014-6-24,76.1,70.4,65.8,72.1,68.0,64.6,98,92,77,29.90,29.85,2,0,7,0.75
2014-6-25,75.7,68.5,62.1,67.6,64.8,60.4,99,89,71,30.02,29.89,2,0,9,0.00
2014-6-26,80.7,67.5,55.0,65.5,60.1,53.5,97,79,57,30.10,30.02,1,0,5,0.00
2014-6-27,85.6,71.3,54.7,66.3,59.1,50.9,91,67,46,30.15,30.07,2,0,7,0.00
2014-6-28,88.2,73.7,60.2,72.1,66.5,58.8,99,80,49,30.15,30.04,4,1,10,0.01
2014-6-29,85.6,77.1,70.2,76.0,69.9,66.4,95,79,58,30.06,29.92,5,1,13,0.03
2014-6-30,86.2,78.6,72.6,75.2,71.6,68.6,93,80,67,29.94,29.73,4,2,12,0.00
2014-7-1,82.9,74.4,66.2,71.5,66.2,62.3,98,77,53,29.75,29.54,6,2,18,0.55
2014-7-2,75.1,70.0,61.8,67.1,61.6,56.8,93,76,56,29.95,29.75,5,2,12,0.03
2014-7-3,70.5,62.1,52.3,60.7,56.6,50.9,96,83,62,30.16,29.93,3,1,10,0.18
2014-7-4,75.3,62.9,51.3,56.8,51.8,43.8,96,70,38,30.31,30.17,3,1,10,0.00
2014-7-5,77.5,65.7,50.8,56.4,52.8,48.5,96,67,39,30.32,30.09,3,1,9,0.00
2014-7-6,79.7,70.7,58.1,68.6,61.1,54.0,89,72,50,30.09,29.73,4,2,12,0.00
2014-7-7,83.6,74.8,66.9,72.0,67.6,60.9,98,80,54,29.75,29.64,6,2,16,0.91
2014-7-8,75.3,68.9,64.5,68.8,63.4,59.5,98,83,63,29.75,29.53,9,2,24,0.98
2014-7-9,73.1,65.2,57.7,60.4,57.4,53.9,94,77,58,30.04,29.75,3,1,11,0.00
2014-7-10,77.1,65.3,54.4,60.7,57.6,53.6,98,78,53,30.21,30.04,2,0,6,0.00
2014-7-11,81.4,67.9,53.7,62.3,57.7,52.0,97,72,47,30.27,30.15,2,0,7,0.00
2014-7-12,85.2,72.5,59.8,70.5,63.5,57.2,97,75,51,30.18,29.90,3,1,10,0.00
2014-7-13,82.2,74.9,65.7,71.0,66.4,60.4,97,77,54,29.90,29.77,5,2,15,0.11
2014-7-14,79.2,68.9,61.6,67.4,61.2,54.6,97,79,43,29.89,29.75,4,1,13,0.21
2014-7-15,68.9,62.1,56.8,60.9,55.7,51.4,97,80,58,29.89,29.71,7,2,15,0.05
2014-7-16,66.2,58.5,51.6,55.8,52.6,49.1,94,81,63,30.03,29.89,3,1,10,0.00
2014-7-17,75.3,64.1,51.7,55.7,53.3,50.0,96,71,45,30.17,30.03,4,1,11,0.00
2014-7-18,79.7,65.3,51.7,60.9,54.3,49.4,98,71,39,30.26,30.16,2,0,6,0.00
2014-7-19,74.2,65.6,57.5,65.0,60.3,53.0,94,83,70,30.18,30.04,1,0,3,0.00
2014-7-20,82.7,69.4,56.6,66.0,60.4,55.8,99,76,44,30.11,30.04,4,0,6,0.00
2014-7-21,87.2,73.6,61.3,65.9,61.6,58.8,98,69,44,30.15,30.07,6,1,7,0.00
2014-7-22,88.0,76.3,61.5,71.3,65.6,58.3,97,71,52,30.12,29.92,11,1,14,0.00
2014-7-23,80.1,68.7,57.3,70.7,61.3,53.5,91,78,65,30.11,29.85,12,1,12,0.00
2014-7-24,74.4,62.9,53.7,56.2,52.9,50.2,94,72,48,30.16,30.05,8,0,11,0.00
2014-7-25,76.8,64.9,51.9,58.7,55.0,50.3,98,73,48,30.12,29.96,11,1,11,0.00
2014-7-26,82.5,70.8,57.0,67.1,61.3,53.8,94,73,53,29.98,29.76,8,1,8,0.00
2014-7-27,83.1,68.7,59.1,71.8,65.0,58.3,99,89,60,29.79,29.57,22,1,23,0.86
2014-7-28,65.3,59.8,50.9,60.6,55.2,48.0,99,85,70,30.04,29.70,14,1,16,0.04
2014-7-29,70.3,58.9,49.2,60.6,54.1,47.0,97,85,63,30.03,29.96,11,1,13,1.03
2014-7-30,73.9,66.3,58.4,61.2,58.8,56.1,98,78,59,30.02,29.98,8,1,8,0.02
2014-7-31,77.3,66.0,52.4,64.2,58.0,50.4,95,77,57,30.05,29.99,10,1,12,0.00
2014-8-1,83.0,70.1,58.3,65.0,61.2,57.5,98,76,44,30.11,30.05,9,1,9,0.00
2014-8-2,79.4,68.6,60.1,67.4,63.0,59.2,98,83,57,30.15,30.08,5,0,7,0.00
2014-8-3,83.7,70.3,57.6,66.8,62.4,57.0,99,79,49,30.14,30.05,6,0,6,0.00
2014-8-4,82.6,69.7,60.0,68.8,64.3,59.1,98,84,60,30.10,30.03,9,1,10,0.02
2014-8-5,77.8,67.1,62.4,68.3,64.2,60.2,99,91,70,30.10,30.02,11,0,11,0.58
2014-8-6,78.3,66.3,55.3,63.3,58.2,54.3,99,78,45,30.09,30.02,6,0,7,0.00
2014-8-7,80.8,67.4,53.9,63.7,58.6,53.3,99,76,48,30.15,30.08,9,0,9,0.00
2014-8-8,78.0,65.9,55.5,62.3,56.7,53.6,96,75,46,30.19,30.11,4,0,4,0.00
2014-8-9,81.6,68.1,55.2,63.2,58.4,53.6,99,74,44,30.18,30.10,5,0,6,0.00
2014-8-10,85.2,71.7,59.4,68.5,63.5,58.0,96,77,52,30.14,30.01,5,0,5,0.00
2014-8-11,71.6,67.1,62.4,69.3,65.7,60.9,99,95,83,30.02,29.68,10,0,11,0.88
2014-8-12,74.8,65.1,61.0,68.6,63.6,58.7,99,95,80,29.85,29.68,11,1,13,0.38
2014-8-13,75.7,63.8,54.6,58.3,54.5,50.5,96,74,47,29.99,29.85,13,2,15,0.00
2014-8-14,69.0,59.3,49.7,51.2,48.2,45.5,92,68,46,30.08,29.99,14,2,14,0.00
2014-8-15,73.0,59.5,47.1,55.1,49.3,44.1,92,71,47,30.09,29.97,11,1,11,0.00
2014-8-16,79.5,67.0,51.8,67.7,59.0,49.1,93,77,58,29.99,29.84,11,2,15,0.01
2014-8-17,81.2,69.4,61.1,66.0,61.8,57.6,94,78,54,30.02,29.91,5,0,6,0.00
2014-8-18,80.3,68.6,58.7,66.1,61.6,57.3,97,80,59,30.00,29.84,5,0,6,0.00
2014-8-19,82.8,69.9,63.4,71.4,65.5,60.3,99,87,65,29.85,29.72,11,1,13,1.24
2014-8-20,80.4,70.8,63.0,71.8,66.1,62.8,100,87,64,29.96,29.77,11,1,11,0.01
2014-8-21,79.7,70.8,61.7,71.8,66.6,61.0,99,87,71,30.01,29.95,5,0,6,0.00
2014-8-22,82.3,72.6,64.7,72.5,67.5,63.6,97,85,66,30.03,29.93,5,0,5,0.00
2014-8-23,79.8,69.9,61.8,69.8,65.3,60.9,98,86,68,30.08,30.00,3,0,5,0.00
2014-8-24,77.2,69.4,63.7,69.5,65.7,62.5,98,88,74,30.12,30.07,4,0,6,0.00
2014-8-25,87.7,74.2,62.8,74.8,68.5,62.2,99,84,62,30.11,30.03,6,0,6,0.00
2014-8-26,86.8,74.2,68.7,75.6,69.7,67.2,99,87,64,30.08,29.99,18,1,26,0.06
2014-8-27,76.2,68.4,62.0,69.3,61.9,57.2,98,81,59,30.14,30.06,7,0,7,0.00
2014-8-28,75.1,62.9,53.2,57.2,54.0,49.7,98,75,47,30.20,30.11,7,0,7,0.00
2014-8-29,77.0,66.9,57.0,60.1,56.1,50.9,92,70,45,30.17,30.02,8,0,9,0.00
2014-8-30,84.1,74.7,66.1,71.9,67.5,59.8,94,79,63,30.04,29.84,12,1,12,0.23
2014-8-31,83.9,73.8,67.7,71.4,68.7,66.7,98,86,58,29.96,29.90,8,1,8,0.44
2014-9-1,83.0,71.7,65.7,73.5,69.4,65.1,100,93,71,29.93,29.71,12,1,13,1.27
2014-9-2,77.2,70.1,61.3,69.0,65.3,59.8,100,86,58,29.95,29.82,10,1,11,0.01
2014-9-3,82.6,69.2,56.4,66.0,61.9,56.1,100,80,51,30.06,29.95,6,0,6,0.00
2014-9-4,85.4,72.4,60.9,72.9,66.5,60.3,99,83,62,30.06,29.96,10,1,12,0.00
2014-9-5,91.9,78.1,67.8,77.1,71.4,66.8,99,81,54,30.04,29.82,28,2,30,1.12
2014-9-6,72.5,64.2,56.2,69.5,58.6,53.7,99,84,54,30.15,29.94,9,1,10,0.27
2014-9-7,77.7,63.3,51.1,57.9,53.8,50.3,98,75,42,30.26,30.15,5,0,5,0.00
2014-9-8,78.0,63.8,51.3,61.4,55.8,50.8,99,78,43,30.24,30.08,5,0,9,0.00
2014-9-9,79.2,67.2,57.9,66.5,60.0,55.8,99,80,48,30.10,29.98,7,0,8,0.00
2014-9-10,73.5,68.5,61.4,71.7,66.2,57.8,98,93,81,30.00,29.56,14,1,17,1.14
2014-9-11,72.1,54.5,50.1,70.5,50.4,46.3,95,86,80,30.24,29.59,17,2,17,0.00
2014-9-12,57.6,52.2,45.7,52.4,49.3,44.9,98,90,78,30.33,30.20,4,0,6,0.04
2014-9-13,55.4,49.6,41.7,50.7,46.4,40.6,97,89,66,30.38,30.12,12,1,12,0.62
2014-9-14,63.1,49.9,37.4,49.6,43.1,36.9,99,80,51,30.41,30.25,7,0,8,0.00
2014-9-15,62.1,51.8,43.0,52.7,48.2,42.2,99,88,66,30.26,30.10,6,0,6,0.16
2014-9-16,64.9,54.8,47.8,51.6,48.1,44.3,98,81,50,30.21,30.10,9,1,11,0.01
2014-9-17,66.1,52.3,40.5,49.5,45.4,39.7,98,80,50,30.11,30.01,6,0,6,0.00
2014-9-18,63.4,52.8,43.6,54.4,49.3,41.7,99,88,70,30.27,30.06,9,0,9,0.00
2014-9-19,68.0,51.8,37.2,51.6,44.8,36.4,99,80,46,30.33,30.08,9,0,9,0.01
2014-9-20,77.3,64.4,53.9,66.0,58.2,49.5,97,81,67,30.08,29.78,13,1,16,0.25
2014-9-21,64.7,58.4,47.6,64.0,55.6,43.8,98,91,64,30.03,29.58,16,3,17,0.85
2014-9-22,61.1,50.5,44.6,47.2,43.0,39.6,96,76,56,30.30,30.03,11,1,12,0.00
2014-9-23,75.2,55.1,42.5,58.6,49.2,41.7,99,83,53,30.40,30.30,8,0,8,0.00
2014-9-24,74.5,58.4,45.3,60.4,52.1,44.8,99,82,52,30.49,30.37,4,0,6,0.01
2014-9-25,75.3,59.7,49.1,59.3,53.8,48.6,99,83,52,30.39,30.28,4,0,4,0.00
2014-9-26,77.8,60.8,46.5,62.9,54.9,46.0,99,83,53,30.36,30.28,5,0,5,0.00
2014-9-27,77.2,62.5,49.5,63.0,55.6,49.0,100,81,49,30.35,30.21,3,0,4,0.01
2014-9-28,77.6,62.7,50.9,61.9,56.7,50.4,100,83,54,30.23,30.08,4,0,4,0.00
2014-9-29,77.3,63.8,50.8,63.1,56.8,50.3,100,81,50,30.08,29.89,8,0,8,0.00
2014-9-30,64.5,52.3,49.8,61.3,50.8,48.3,99,95,86,30.06,29.89,9,1,10,0.34
2014-10-1,69.2,58.1,51.3,57.4,53.8,50.5,99,87,63,30.12,30.03,6,0,6,0.01
2014-10-2,69.0,62.5,56.9,63.3,59.3,56.1,99,90,69,30.08,29.81,6,0,7,0.05
2014-10-3,67.6,61.9,50.0,64.2,58.3,47.5,97,88,79,29.81,29.44,17,2,19,0.43
2014-10-4,50.0,42.9,38.4,47.5,38.8,33.7,95,86,60,29.72,29.60,18,2,18,0.36
2014-10-5,51.1,46.1,41.1,40.7,38.5,34.2,94,76,56,29.79,29.71,15,2,16,0.02
2014-10-6,62.4,50.8,45.2,49.9,44.5,39.8,96,80,56,29.75,29.64,11,1,14,0.02
2014-10-7,59.9,50.4,41.1,51.7,46.2,40.0,97,86,65,29.81,29.69,13,1,13,0.01
2014-10-8,58.4,51.1,44.2,48.5,40.0,31.9,96,68,39,30.02,29.78,28,3,28,0.00
2014-10-9,58.1,46.8,38.5,40.2,37.7,35.2,95,73,44,30.14,30.01,8,1,13,0.00
2014-10-10,54.9,44.9,34.9,43.8,37.8,33.8,98,78,51,30.23,30.14,8,0,8,0.00
2014-10-11,57.7,43.3,33.4,41.9,35.7,32.6,99,78,44,30.32,30.20,7,0,8,0.00
2014-10-12,59.3,45.1,30.3,46.9,38.5,29.6,99,80,55,30.29,30.07,7,1,9,0.00
2014-10-13,66.7,59.7,50.0,65.0,58.3,46.5,99,95,86,30.07,29.83,15,0,15,0.10
2014-10-14,67.7,64.6,57.4,63.2,60.6,56.6,98,87,79,29.83,29.61,12,1,13,0.45
2014-10-15,65.3,58.4,51.9,57.1,54.6,50.3,98,88,67,29.82,29.71,7,0,7,0.00
2014-10-16,61.1,54.0,48.7,55.6,52.0,48.1,99,93,79,29.81,29.71,10,0,10,0.01
2014-10-17,61.4,54.7,47.6,52.9,51.0,45.6,97,88,68,29.71,29.52,19,2,19,0.05
2014-10-18,47.4,43.3,38.9,45.6,39.9,34.1,94,88,82,30.16,29.66,15,2,15,0.02
2014-10-19,50.9,40.4,28.9,38.6,33.2,27.6,96,77,49,30.25,30.02,8,1,8,0.00
2014-10-20,54.6,49.1,44.1,50.2,45.6,38.6,96,88,75,30.02,29.82,8,1,8,0.30
2014-10-21,46.8,44.1,41.9,45.6,41.2,36.9,97,90,82,30.27,29.91,14,2,14,0.03
2014-10-22,52.8,44.7,37.3,43.2,39.8,35.9,95,83,68,30.40,30.27,9,1,9,0.00
2014-10-23,58.9,42.2,31.3,44.4,37.3,30.5,99,85,50,30.33,30.15,6,0,6,0.00
2014-10-24,60.7,46.5,33.3,49.1,41.9,32.5,99,85,62,30.16,30.00,5,0,8,0.00
2014-10-25,66.3,54.2,44.7,53.3,44.5,31.8,98,74,30,30.00,29.74,24,2,24,0.00
2014-10-26,59.2,48.8,38.1,38.0,34.7,32.4,90,60,38,30.00,29.84,15,2,15,0.00
2014-10-27,69.9,51.8,31.5,56.9,43.4,30.1,97,76,50,30.00,29.74,12,0,12,0.00
2014-10-28,68.3,60.1,50.0,59.3,50.8,38.6,95,72,52,29.91,29.69,16,3,16,0.20
2014-10-29,49.9,45.4,43.3,39.4,37.8,36.3,81,75,64,30.13,29.91,10,2,13,0.00
2014-10-30,48.4,42.9,33.1,38.4,36.0,31.3,96,77,61,30.20,30.06,9,1,9,0.00
2014-10-31,44.4,39.0,32.8,39.5,36.2,31.1,95,90,78,30.19,29.94,19,2,19,0.49
2014-11-1,38.7,32.7,24.7,31.2,25.9,21.0,93,76,59,30.44,30.19,20,3,20,0.00
2014-11-2,47.7,33.0,22.8,26.3,22.4,18.1,92,69,32,30.51,30.33,9,1,9,0.00
2014-11-3,58.3,48.1,36.1,38.9,31.2,23.9,68,52,39,30.33,30.06,15,2,15,0.00
2014-11-4,55.1,50.9,43.1,49.7,41.4,34.3,95,71,54,30.06,29.88,20,3,20,0.08
2014-11-5,53.8,44.3,39.5,38.4,36.2,32.3,91,75,49,30.16,30.03,16,2,16,0.00
2014-11-6,48.2,42.8,36.0,44.6,39.7,32.1,96,89,84,30.07,29.77,17,1,17,0.07
2014-11-7,40.9,35.3,31.3,32.1,26.7,23.6,86,71,51,30.17,29.99,10,2,15,0.00
2014-11-8,41.6,37.5,33.2,38.4,33.5,29.2,95,85,75,30.00,29.74,15,2,15,0.16
2014-11-9,41.7,37.5,30.6,33.9,30.7,27.4,91,77,66,29.98,29.84,18,2,18,0.00
2014-11-10,56.7,46.5,38.5,41.8,36.2,32.1,84,68,56,30.01,29.78,10,1,10,0.00
2014-11-11,59.1,47.6,36.1,49.5,39.4,30.1,90,74,59,29.92,29.66,24,3,24,0.02
2014-11-12,36.0,31.5,28.7,30.1,23.2,21.0,79,71,65,30.28,29.92,20,4,20,0.00
2014-11-13,32.1,28.4,22.9,23.5,21.4,17.2,88,75,59,30.26,30.18,8,3,12,0.00
2014-11-14,31.5,27.1,21.8,23.7,21.0,19.3,91,78,65,30.41,30.25,13,2,13,0.00
2014-11-15,31.9,27.4,24.3,22.9,20.4,17.8,89,75,58,30.45,30.30,11,2,11,0.00
2014-11-16,32.9,29.1,27.0,27.1,22.9,18.8,93,78,64,30.30,29.96,9,1,9,0.00
2014-11-17,28.9,24.5,14.7,26.7,20.1,9.2,93,83,63,29.96,29.69,19,4,19,0.00
2014-11-18,19.9,15.6,11.4,12.1,8.9,-92.9,86,76,66,30.18,29.84,24,6,24,0.00
2014-11-19,26.1,19.9,12.7,23.5,15.6,7.3,94,83,74,30.18,29.79,18,3,18,0.00
2014-11-20,24.2,20.0,12.8,20.3,16.3,9.4,91,86,72,30.26,29.91,22,4,22,0.00
2014-11-21,26.7,16.6,8.7,14.5,10.3,6.0,90,74,54,30.57,30.26,11,1,11,0.00
2014-11-22,46.2,33.8,19.0,44.3,30.4,12.5,97,87,68,30.42,29.99,13,2,13,0.10
2014-11-23,49.6,46.6,44.4,47.3,44.3,42.1,98,92,86,30.01,29.25,8,1,8,0.68
2014-11-24,55.8,46.2,32.5,53.9,43.0,27.7,99,89,77,29.72,29.07,27,7,29,0.51
2014-11-25,32.5,29.7,28.6,27.9,24.5,22.2,87,81,75,30.29,29.72,20,5,20,0.00
2014-11-26,31.5,29.1,27.5,24.8,23.1,21.4,85,78,73,30.29,30.17,7,1,7,0.00
2014-11-27,30.5,26.4,20.8,24.6,21.2,10.9,90,81,64,30.39,30.17,12,1,12,0.00
2014-11-28,26.9,20.9,14.9,23.4,14.8,7.7,91,77,62,30.44,30.16,11,1,11,0.00
2014-11-29,48.7,37.3,26.8,45.0,31.3,23.4,88,79,63,30.17,29.75,15,2,15,0.01
2014-11-30,56.4,49.7,34.3,52.0,46.7,32.8,95,90,84,30.13,29.74,12,2,12,0.02
2014-12-1,34.3,25.1,15.3,32.7,17.1,9.1,94,72,49,30.73,30.13,14,2,14,0.01
2014-12-2,33.0,25.6,15.2,26.6,20.5,9.6,86,81,76,30.71,30.13,13,2,13,0.00
2014-12-3,36.9,31.0,25.9,29.2,24.7,20.1,93,78,55,30.38,30.08,16,4,24,0.00
2014-12-4,32.0,25.6,20.7,20.4,16.1,13.0,80,68,49,30.54,30.37,6,0,6,0.00
2014-12-5,36.8,32.8,27.0,31.1,28.0,19.8,88,82,74,30.46,30.26,5,0,5,0.00
2014-12-6,37.1,32.4,24.7,32.1,26.6,18.2,92,79,67,30.72,30.27,16,1,16,0.00
2014-12-7,34.8,27.1,18.4,24.7,17.2,10.7,93,68,37,30.80,30.53,10,1,10,0.00
2014-12-8,40.7,34.9,29.0,34.0,27.5,24.2,94,75,55,30.54,30.12,10,1,10,0.08
2014-12-9,35.9,34.0,30.1,34.1,32.1,27.4,97,93,86,30.34,30.12,14,1,14,0.02
2014-12-10,30.1,24.8,21.2,27.5,21.6,18.1,90,87,83,30.38,30.18,16,2,16,0.00
2014-12-11,36.6,23.8,17.9,25.3,16.1,10.9,87,57,47,30.20,30.11,16,3,16,0.00
2014-12-12,32.7,29.8,27.0,29.9,27.4,23.8,95,91,84,30.30,30.18,8,2,11,0.00
2014-12-13,40.2,35.6,30.9,39.6,34.6,29.6,98,96,91,30.26,30.07,16,4,16,0.00
2014-12-14,47.5,44.4,40.2,45.9,43.2,38.8,98,96,92,30.13,30.06,8,1,13,0.01
2014-12-15,46.6,43.6,39.5,45.2,42.2,38.2,98,95,86,30.11,29.87,6,0,6,0.07
2014-12-16,43.7,41.9,35.5,43.2,41.2,33.6,99,97,93,29.92,29.70,20,2,20,0.36
2014-12-17,35.4,29.1,25.4,33.6,24.8,19.2,95,84,75,30.20,29.92,25,5,25,0.00
2014-12-18,30.3,28.3,25.5,28.3,26.0,21.7,95,91,82,30.28,30.21,11,1,11,0.00
2014-12-19,31.7,24.7,17.2,24.0,20.4,15.2,94,84,66,30.42,30.27,7,1,7,0.00
2014-12-20,28.5,24.0,15.9,23.5,20.0,14.2,95,85,75,30.41,30.35,5,0,5,0.00
2014-12-21,33.4,27.6,19.6,25.9,23.3,17.5,93,84,72,30.40,30.27,9,0,9,0.00
2014-12-22,36.4,30.1,23.4,32.4,27.0,21.4,94,88,79,30.27,29.94,10,1,10,0.01
2014-12-23,46.2,40.2,33.9,45.8,39.4,32.3,99,97,92,29.94,29.81,12,1,12,0.09
2014-12-24,44.5,40.6,32.5,44.2,40.3,32.0,99,99,98,29.82,29.21,21,2,21,0.99
2014-12-25,36.5,34.8,31.3,34.9,31.8,29.0,99,89,79,30.17,29.50,21,5,21,0.02
2014-12-26,46.2,37.1,30.9,38.6,34.1,28.9,96,89,73,30.21,30.11,11,1,11,0.00
2014-12-27,47.9,42.2,35.9,45.1,40.0,31.9,97,92,79,30.18,29.95,24,3,24,0.04
2014-12-28,35.9,32.3,25.7,32.5,26.5,21.4,90,80,58,30.27,30.02,15,2,15,0.00
2014-12-29,29.0,24.2,15.5,22.0,15.7,10.0,85,70,54,30.50,30.27,14,1,14,0.00
2014-12-30,20.6,15.6,12.6,13.1,8.1,4.0,83,66,60,30.64,30.50,17,2,17,0.00
2014-12-31,19.7,12.9,11.1,8.0,4.7,2.1,79,55,56,30.58,30.14,21,5,21,0.00
2015-1-1,27.5,18.3,16.7,19.3,11.3,7.8,78,55,58,30.14,29.96,16,5,20,0.00
2015-1-2,32.3,28.0,23.8,21.1,18.1,17.4,85,67,58,30.43,30.13,10,2,15,0.00